Time,TemperatureF,DewpointF,PressureIn,WindDirection,WindDirectionDegrees,WindSpeedMPH,WindSpeedGustMPH,Humidity,HourlyPrecipIn,Conditions,Clouds,dailyrainin,SolarRadiationWatts/m^2,SoftwareType,DateUTC
2013-08-31 00:05:00,65.0,62.0,-100.00,North,9,4.0,10.0,89,0.00,,,0.66,0.000000,,2013-08-31 04:05:00,
2013-08-31 00:44:00,63.0,61.0,-100.00,North,7,4.0,8.0,92,0.00,,,0.66,0.000000,,2013-08-31 04:44:00,
2013-08-31 00:54:00,63.0,61.0,-100.00,North,7,4.0,8.0,92,0.00,,,0.66,0.000000,,2013-08-31 04:54:00,
2013-08-31 01:04:00,63.0,61.0,-100.00,North,7,4.0,8.0,92,0.00,,,0.66,0.000000,,2013-08-31 05:04:00,
2013-08-31 01:13:00,63.0,61.0,-100.00,North,7,4.0,8.0,92,0.00,,,0.66,0.000000,,2013-08-31 05:13:00,
2013-08-31 01:43:00,62.0,60.0,-100.00,North,6,5.0,8.0,93,0.00,,,0.66,0.000000,,2013-08-31 05:43:00,
2013-08-31 01:53:00,62.0,60.0,-100.00,North,6,5.0,8.0,93,0.00,,,0.66,0.000000,,2013-08-31 05:53:00,
2013-08-31 02:02:00,62.0,60.0,-100.00,North,6,5.0,8.0,93,0.00,,,0.66,0.000000,,2013-08-31 06:02:00,
2013-08-31 02:12:00,62.0,60.0,-100.00,North,6,5.0,8.0,93,0.00,,,0.66,0.000000,,2013-08-31 06:12:00,
2013-08-31 02:42:00,64.0,60.0,-100.00,NNE,26,6.0,9.0,86,0.00,,,0.66,0.000000,,2013-08-31 06:42:00,
2013-08-31 02:52:00,64.0,60.0,-100.00,NNE,26,6.0,9.0,86,0.00,,,0.66,0.000000,,2013-08-31 06:52:00,
2013-08-31 03:02:00,64.0,60.0,-100.00,NNE,26,6.0,9.0,86,0.00,,,0.66,0.000000,,2013-08-31 07:02:00,
2013-08-31 03:12:00,64.0,60.0,-100.00,NNE,26,6.0,9.0,86,0.00,,,0.66,0.000000,,2013-08-31 07:12:00,
2013-08-31 03:42:00,63.0,58.0,-100.00,NE,36,5.0,9.0,85,0.00,,,0.66,0.000000,,2013-08-31 07:42:00,
2013-08-31 03:52:00,63.0,58.0,-100.00,NE,36,5.0,9.0,85,0.00,,,0.66,0.000000,,2013-08-31 07:52:00,
2013-08-31 04:03:00,63.0,58.0,-100.00,NE,36,5.0,9.0,85,0.00,,,0.66,0.000000,,2013-08-31 08:03:00,
2013-08-31 04:12:00,63.0,58.0,-100.00,NE,36,5.0,9.0,85,0.00,,,0.66,0.000000,,2013-08-31 08:12:00,
2013-08-31 04:42:00,60.0,57.0,-100.00,North,5,4.0,6.0,90,0.00,,,0.66,0.000000,,2013-08-31 08:42:00,
2013-08-31 04:52:00,60.0,57.0,-100.00,North,5,4.0,6.0,90,0.00,,,0.66,0.000000,,2013-08-31 08:52:00,
2013-08-31 05:02:00,60.0,57.0,-100.00,North,5,4.0,6.0,90,0.00,,,0.66,0.000000,,2013-08-31 09:02:00,
2013-08-31 05:12:00,60.0,57.0,-100.00,North,5,4.0,6.0,90,0.00,,,0.66,0.000000,,2013-08-31 09:12:00,
2013-08-31 05:44:00,59.0,57.0,-100.00,NNE,15,4.0,6.0,94,0.00,,,0.65,0.000000,,2013-08-31 09:44:00,
2013-08-31 05:53:00,59.0,57.0,-100.00,NNE,15,4.0,6.0,94,0.00,,,0.65,0.000000,,2013-08-31 09:53:00,
2013-08-31 06:03:00,59.0,57.0,-100.00,NNE,15,4.0,6.0,94,0.00,,,0.65,0.000000,,2013-08-31 10:03:00,
2013-08-31 06:13:00,59.0,57.0,-100.00,NNE,15,4.0,6.0,94,0.00,,,0.65,0.000000,,2013-08-31 10:13:00,
2013-08-31 06:43:00,58.0,57.0,-100.00,ENE,58,4.0,5.0,95,0.00,,,0.65,0.000000,,2013-08-31 10:43:00,
2013-08-31 06:53:00,58.0,57.0,-100.00,ENE,58,4.0,5.0,95,0.00,,,0.65,0.000000,,2013-08-31 10:53:00,
2013-08-31 07:03:00,58.0,57.0,-100.00,ENE,58,4.0,5.0,95,0.00,,,0.65,0.000000,,2013-08-31 11:03:00,
2013-08-31 07:12:00,58.0,57.0,-100.00,ENE,58,4.0,5.0,95,0.00,,,0.65,0.000000,,2013-08-31 11:12:00,
2013-08-31 07:42:00,57.0,56.0,-100.00,NE,53,5.0,5.0,97,0.00,,,0.65,3.000000,,2013-08-31 11:42:00,
2013-08-31 07:52:00,57.0,56.0,-100.00,NE,53,5.0,5.0,97,0.00,,,0.65,3.000000,,2013-08-31 11:52:00,
2013-08-31 08:02:00,57.0,56.0,-100.00,NE,53,5.0,5.0,97,0.00,,,0.65,3.000000,,2013-08-31 12:02:00,
2013-08-31 08:12:00,57.0,56.0,-100.00,NE,53,5.0,5.0,97,0.00,,,0.65,3.000000,,2013-08-31 12:12:00,
2013-08-31 08:42:00,62.0,60.0,-100.00,NNE,24,3.0,5.0,92,0.00,,,0.56,130.000000,,2013-08-31 12:42:00,
2013-08-31 08:52:00,62.0,60.0,-100.00,NNE,24,3.0,5.0,92,0.00,,,0.56,130.000000,,2013-08-31 12:52:00,
2013-08-31 09:01:00,62.0,60.0,-100.00,NNE,24,3.0,5.0,92,0.00,,,0.56,130.000000,,2013-08-31 13:01:00,
2013-08-31 09:11:00,62.0,60.0,-100.00,NNE,24,3.0,5.0,92,0.00,,,0.56,130.000000,,2013-08-31 13:11:00,
2013-08-31 09:42:00,65.0,60.0,-100.00,ENE,68,4.0,7.0,83,0.00,,,0.39,289.000000,,2013-08-31 13:42:00,
2013-08-31 09:52:00,65.0,60.0,-100.00,ENE,68,4.0,7.0,83,0.00,,,0.39,289.000000,,2013-08-31 13:52:00,
2013-08-31 10:02:00,65.0,60.0,-100.00,ENE,68,4.0,7.0,83,0.00,,,0.39,289.000000,,2013-08-31 14:02:00,
2013-08-31 10:12:00,65.0,60.0,-100.00,ENE,68,4.0,7.0,83,0.00,,,0.39,289.000000,,2013-08-31 14:12:00,
2013-08-31 10:42:00,69.0,61.0,-100.00,ENE,67,3.0,5.0,75,0.00,,,0.04,487.000000,,2013-08-31 14:42:00,
2013-08-31 10:52:00,69.0,61.0,-100.00,ENE,67,3.0,5.0,75,0.00,,,0.04,487.000000,,2013-08-31 14:52:00,
2013-08-31 11:02:00,69.0,61.0,-100.00,ENE,67,3.0,5.0,75,0.00,,,0.04,487.000000,,2013-08-31 15:02:00,
2013-08-31 11:12:00,69.0,61.0,-100.00,ENE,67,3.0,5.0,75,0.00,,,0.04,487.000000,,2013-08-31 15:12:00,
2013-08-31 11:14:00,71.0,62.0,-100.00,WNW,300,3.0,6.0,74,0.00,,,0.04,577.000000,,2013-08-31 15:14:00,
2013-08-31 11:45:00,71.0,62.0,-100.00,WNW,300,3.0,6.0,74,0.00,,,0.04,577.000000,,2013-08-31 15:45:00,
2013-08-31 11:55:00,71.0,62.0,-100.00,WNW,300,3.0,6.0,74,0.00,,,0.04,577.000000,,2013-08-31 15:55:00,
2013-08-31 12:04:00,71.0,62.0,-100.00,WNW,300,3.0,6.0,74,0.00,,,0.04,577.000000,,2013-08-31 16:04:00,
2013-08-31 12:44:00,72.0,62.0,-100.00,North,357,3.0,8.0,71,0.00,,,0.04,760.000000,,2013-08-31 16:44:00,
2013-08-31 12:53:00,72.0,62.0,-100.00,North,357,3.0,8.0,71,0.00,,,0.04,760.000000,,2013-08-31 16:53:00,
2013-08-31 13:03:00,72.0,62.0,-100.00,North,357,3.0,8.0,71,0.00,,,0.04,760.000000,,2013-08-31 17:03:00,
2013-08-31 13:13:00,72.0,62.0,-100.00,North,357,3.0,8.0,71,0.00,,,0.04,760.000000,,2013-08-31 17:13:00,
2013-08-31 13:43:00,72.0,61.0,-100.00,West,281,2.0,9.0,68,0.00,,,0.04,583.000000,,2013-08-31 17:43:00,
2013-08-31 13:53:00,72.0,61.0,-100.00,West,281,2.0,9.0,68,0.00,,,0.04,583.000000,,2013-08-31 17:53:00,
2013-08-31 14:02:00,72.0,61.0,-100.00,West,281,2.0,9.0,68,0.00,,,0.04,583.000000,,2013-08-31 18:02:00,
2013-08-31 14:13:00,72.0,61.0,-100.00,West,281,2.0,9.0,68,0.00,,,0.04,583.000000,,2013-08-31 18:13:00,
2013-08-31 14:42:00,75.0,62.0,-100.00,North,9,5.0,7.0,65,0.00,,,0.02,774.000000,,2013-08-31 18:42:00,
2013-08-31 14:52:00,75.0,62.0,-100.00,North,9,5.0,7.0,65,0.00,,,0.02,774.000000,,2013-08-31 18:52:00,
2013-08-31 15:02:00,75.0,62.0,-100.00,North,9,5.0,7.0,65,0.00,,,0.02,774.000000,,2013-08-31 19:02:00,
2013-08-31 15:12:00,75.0,62.0,-100.00,North,9,5.0,7.0,65,0.00,,,0.02,774.000000,,2013-08-31 19:12:00,
2013-08-31 15:42:00,75.0,63.0,-100.00,NW,317,3.0,10.0,66,0.00,,,0.00,772.000000,,2013-08-31 19:42:00,
2013-08-31 15:52:00,75.0,63.0,-100.00,NW,317,3.0,10.0,66,0.00,,,0.00,772.000000,,2013-08-31 19:52:00,
2013-08-31 16:02:00,75.0,63.0,-100.00,NW,317,3.0,10.0,66,0.00,,,0.00,772.000000,,2013-08-31 20:02:00,
2013-08-31 16:12:00,75.0,63.0,-100.00,NW,317,3.0,10.0,66,0.00,,,0.00,772.000000,,2013-08-31 20:12:00,
2013-08-31 16:43:00,78.0,64.0,-100.00,ENE,78,3.0,8.0,63,0.00,,,0.00,825.000000,,2013-08-31 20:43:00,
2013-08-31 16:53:00,78.0,64.0,-100.00,ENE,78,3.0,8.0,63,0.00,,,0.00,825.000000,,2013-08-31 20:53:00,
2013-08-31 17:02:00,78.0,64.0,-100.00,ENE,78,3.0,8.0,63,0.00,,,0.00,825.000000,,2013-08-31 21:02:00,
2013-08-31 17:12:00,78.0,64.0,-100.00,ENE,78,3.0,8.0,63,0.00,,,0.00,825.000000,,2013-08-31 21:12:00,
2013-08-31 17:44:00,76.0,65.0,-100.00,South,180,7.0,11.0,68,0.00,,,0.00,447.000000,,2013-08-31 21:44:00,
2013-08-31 17:54:00,76.0,65.0,-100.00,South,180,7.0,11.0,68,0.00,,,0.00,447.000000,,2013-08-31 21:54:00,
2013-08-31 18:04:00,76.0,65.0,-100.00,South,180,7.0,11.0,68,0.00,,,0.00,447.000000,,2013-08-31 22:04:00,
2013-08-31 18:13:00,76.0,65.0,-100.00,South,180,7.0,11.0,68,0.00,,,0.00,447.000000,,2013-08-31 22:13:00,
2013-08-31 18:44:00,74.0,64.0,-100.00,SSE,168,6.0,11.0,71,0.00,,,0.00,451.000000,,2013-08-31 22:44:00,
2013-08-31 18:53:00,74.0,64.0,-100.00,SSE,168,6.0,11.0,71,0.00,,,0.00,451.000000,,2013-08-31 22:53:00,
2013-08-31 19:03:00,74.0,64.0,-100.00,SSE,168,6.0,11.0,71,0.00,,,0.00,451.000000,,2013-08-31 23:03:00,
2013-08-31 19:12:00,74.0,64.0,-100.00,SSE,168,6.0,11.0,71,0.00,,,0.00,451.000000,,2013-08-31 23:12:00,
2013-08-31 19:42:00,73.0,65.0,-100.00,South,183,4.0,8.0,75,0.00,,,0.00,155.000000,,2013-08-31 23:42:00,
2013-08-31 19:52:00,73.0,65.0,-100.00,South,183,4.0,8.0,75,0.00,,,0.00,155.000000,,2013-08-31 23:52:00,
2013-08-31 20:02:00,73.0,65.0,-100.00,South,183,4.0,8.0,75,0.00,,,0.00,155.000000,,2013-09-01 00:02:00,
2013-08-31 20:11:00,73.0,65.0,-100.00,South,183,4.0,8.0,75,0.00,,,0.00,155.000000,,2013-09-01 00:11:00,
2013-08-31 20:42:00,68.0,63.0,-100.00,SSW,199,3.0,7.0,84,0.00,,,0.00,79.000000,,2013-09-01 00:42:00,
2013-08-31 20:52:00,68.0,63.0,-100.00,SSW,199,3.0,7.0,84,0.00,,,0.00,79.000000,,2013-09-01 00:52:00,
2013-08-31 21:02:00,68.0,63.0,-100.00,SSW,199,3.0,7.0,84,0.00,,,0.00,79.000000,,2013-09-01 01:02:00,
2013-08-31 21:11:00,68.0,63.0,-100.00,SSW,199,3.0,7.0,84,0.00,,,0.00,79.000000,,2013-09-01 01:11:00,
2013-08-31 21:42:00,63.0,61.0,-100.00,SE,134,5.0,6.0,94,0.00,,,0.00,1.000000,,2013-09-01 01:42:00,
2013-08-31 21:52:00,63.0,61.0,-100.00,SE,134,5.0,6.0,94,0.00,,,0.00,1.000000,,2013-09-01 01:52:00,
2013-08-31 22:02:00,63.0,61.0,-100.00,SE,134,5.0,6.0,94,0.00,,,0.00,1.000000,,2013-09-01 02:02:00,
2013-08-31 22:12:00,63.0,61.0,-100.00,SE,134,5.0,6.0,94,0.00,,,0.00,1.000000,,2013-09-01 02:12:00,
2013-08-31 22:43:00,61.0,60.0,-100.00,SW,216,2.0,6.0,98,0.00,,,-99.99,0.000000,,2013-09-01 02:43:00,
2013-08-31 22:53:00,61.0,60.0,-100.00,SW,216,2.0,6.0,98,0.00,,,-99.99,0.000000,,2013-09-01 02:53:00,
2013-08-31 23:02:00,61.0,60.0,-100.00,SW,216,2.0,6.0,98,0.00,,,-99.99,0.000000,,2013-09-01 03:02:00,
2013-08-31 23:12:00,61.0,60.0,-100.00,SW,216,2.0,6.0,98,0.00,,,-99.99,0.000000,,2013-09-01 03:12:00,
2013-08-31 23:14:00,60.0,60.0,-100.00,SSE,150,3.0,3.0,99,0.00,,,0.00,0.000000,,2013-09-01 03:14:00,
2013-08-31 23:44:00,60.0,60.0,-100.00,SSE,150,3.0,3.0,99,0.00,,,0.00,0.000000,,2013-09-01 03:44:00,
2013-08-31 23:54:00,60.0,60.0,-100.00,SSE,150,3.0,3.0,99,0.00,,,0.00,0.000000,,2013-09-01 03:54:00,